Time,TemperatureF,DewpointF,PressureIn,WindDirection,WindDirectionDegrees,WindSpeedMPH,WindSpeedGustMPH,Humidity,HourlyPrecipIn,Conditions,Clouds,dailyrainin,SoftwareType,DateUTC
2013-03-10 00:00:00,48.2,40.6,29.35,SE,135,3.1,3.8,75,0.03,,,0.00,WUHU216HW,2013-03-10 06:00:00,
2013-03-10 00:05:00,48.2,40.6,29.35,SE,135,1.1,3.8,75,0.03,,,0.00,WUHU216HW,2013-03-10 06:05:00,
2013-03-10 00:10:00,48.2,40.6,29.35,SSE,158,1.8,2.5,75,0.03,,,0.00,WUHU216HW,2013-03-10 06:10:00,
2013-03-10 00:15:00,48.2,40.6,29.35,SE,135,1.1,1.8,75,0.01,,,0.00,WUHU216HW,2013-03-10 06:15:00,
2013-03-10 00:20:00,48.2,40.6,29.35,SE,135,0.4,1.8,75,0.01,,,0.00,WUHU216HW,2013-03-10 06:20:00,
2013-03-10 00:25:00,48.2,40.6,29.35,SE,135,1.6,1.8,75,0.01,,,0.00,WUHU216HW,2013-03-10 06:25:00,
2013-03-10 00:30:00,48.2,40.6,29.35,ESE,113,1.1,1.8,75,0.01,,,0.00,WUHU216HW,2013-03-10 06:30:00,
2013-03-10 00:35:00,48.2,40.6,29.35,SE,135,1.8,1.8,75,0.01,,,0.00,WUHU216HW,2013-03-10 06:35:00,
2013-03-10 00:40:00,48.2,40.6,29.35,SSE,158,0.0,1.8,75,0.00,,,0.00,WUHU216HW,2013-03-10 06:40:00,
2013-03-10 00:45:00,48.4,40.8,29.35,ESE,113,0.0,0.7,75,0.00,,,0.00,WUHU216HW,2013-03-10 06:45:00,
2013-03-10 00:50:00,48.4,40.8,29.35,ESE,113,1.1,1.1,75,0.01,,,0.01,WUHU216HW,2013-03-10 06:50:00,
2013-03-10 00:55:00,48.4,40.8,29.35,SE,135,0.4,1.1,75,0.01,,,0.01,WUHU216HW,2013-03-10 06:55:00,
2013-03-10 01:00:00,48.4,40.8,29.35,SE,135,0.4,1.3,75,0.01,,,0.01,WUHU216HW,2013-03-10 07:00:00,
2013-03-10 01:05:00,48.2,40.6,29.35,SSE,158,0.4,1.6,75,0.01,,,0.01,WUHU216HW,2013-03-10 07:05:00,
2013-03-10 01:10:00,48.2,40.6,29.35,ESE,113,0.9,1.6,75,0.01,,,0.01,WUHU216HW,2013-03-10 07:10:00,
2013-03-10 01:15:00,48.4,40.8,29.35,SE,135,0.0,1.1,75,0.01,,,0.01,WUHU216HW,2013-03-10 07:15:00,
2013-03-10 01:20:00,48.4,40.8,29.35,NNW,338,0.0,1.1,75,0.01,,,0.01,WUHU216HW,2013-03-10 07:20:00,
2013-03-10 01:25:00,48.4,40.8,29.35,NW,315,0.0,0.0,75,0.01,,,0.01,WUHU216HW,2013-03-10 07:25:00,
2013-03-10 01:30:00,48.4,41.1,29.35,NW,315,0.0,0.0,76,0.01,,,0.01,WUHU216HW,2013-03-10 07:30:00,
2013-03-10 01:35:00,48.4,41.1,29.35,NW,315,0.0,0.0,76,0.01,,,0.01,WUHU216HW,2013-03-10 07:35:00,
2013-03-10 01:40:00,48.2,41.0,29.35,North,0,0.0,0.0,76,0.01,,,0.01,WUHU216HW,2013-03-10 07:40:00,
2013-03-10 01:45:00,48.2,41.0,29.35,NNE,23,0.0,0.0,76,0.00,,,0.01,WUHU216HW,2013-03-10 07:45:00,
2013-03-10 01:50:00,48.1,40.8,29.35,NNE,23,0.0,0.0,76,0.00,,,0.01,WUHU216HW,2013-03-10 07:50:00,
2013-03-10 01:55:00,48.1,41.1,29.35,NE,45,0.0,0.0,77,0.01,,,0.02,WUHU216HW,2013-03-10 07:55:00,
2013-03-10 03:00:00,48.1,41.5,29.35,NE,45,0.0,0.0,78,0.02,,,0.06,WUHU216HW,2013-03-10 08:00:00,
2013-03-10 03:05:00,47.9,41.3,29.35,ESE,113,0.7,0.7,78,0.03,,,0.07,WUHU216HW,2013-03-10 08:05:00,
2013-03-10 03:10:00,47.9,41.3,29.35,East,90,0.0,0.7,78,0.03,,,0.07,WUHU216HW,2013-03-10 08:10:00,
2013-03-10 03:15:00,47.9,41.3,29.34,ESE,113,0.0,0.4,78,0.03,,,0.07,WUHU216HW,2013-03-10 08:15:00,
2013-03-10 03:20:00,47.7,41.5,29.34,SE,135,0.0,0.4,79,0.04,,,0.08,WUHU216HW,2013-03-10 08:20:00,
2013-03-10 03:25:00,47.7,41.5,29.34,SSE,158,1.3,1.3,79,0.04,,,0.08,WUHU216HW,2013-03-10 08:25:00,
2013-03-10 03:30:00,47.7,41.5,29.34,ESE,113,0.2,1.3,79,0.05,,,0.09,WUHU216HW,2013-03-10 08:30:00,
2013-03-10 03:35:00,47.7,41.5,29.34,SSE,158,0.0,0.9,79,0.06,,,0.10,WUHU216HW,2013-03-10 08:35:00,
2013-03-10 03:40:00,47.7,41.9,29.34,SE,135,0.7,1.1,80,0.09,,,0.12,WUHU216HW,2013-03-10 08:40:00,
2013-03-10 03:45:00,47.7,41.9,29.34,SSE,158,1.1,1.1,80,0.10,,,0.14,WUHU216HW,2013-03-10 08:45:00,
2013-03-10 03:50:00,47.7,41.9,29.34,SSE,158,0.4,1.1,80,0.11,,,0.15,WUHU216HW,2013-03-10 08:50:00,
2013-03-10 03:55:00,47.7,41.9,29.34,SE,135,0.4,0.4,80,0.10,,,0.15,WUHU216HW,2013-03-10 08:55:00,
2013-03-10 04:00:00,47.7,41.9,29.34,SE,135,0.7,0.7,80,0.09,,,0.15,WUHU216HW,2013-03-10 09:00:00,
2013-03-10 04:05:00,47.7,41.9,29.34,SE,135,0.9,0.9,80,0.09,,,0.16,WUHU216HW,2013-03-10 09:05:00,
2013-03-10 04:10:00,47.5,41.7,29.34,SE,135,0.7,1.3,80,0.09,,,0.16,WUHU216HW,2013-03-10 09:10:00,
2013-03-10 04:15:00,47.5,41.7,29.35,SSE,158,0.9,1.3,80,0.10,,,0.16,WUHU216HW,2013-03-10 09:15:00,
2013-03-10 04:20:00,47.5,41.9,29.35,SE,135,0.7,1.6,81,0.10,,,0.18,WUHU216HW,2013-03-10 09:20:00,
2013-03-10 04:25:00,47.3,41.8,29.35,SE,135,0.7,1.6,81,0.11,,,0.20,WUHU216HW,2013-03-10 09:25:00,
2013-03-10 04:30:00,47.3,41.8,29.35,WSW,248,1.1,2.5,81,0.11,,,0.21,WUHU216HW,2013-03-10 09:30:00,
2013-03-10 04:35:00,47.5,41.9,29.35,SE,135,2.0,2.7,81,0.10,,,0.21,WUHU216HW,2013-03-10 09:35:00,
2013-03-10 04:40:00,47.5,42.3,29.35,SSE,158,1.8,3.8,82,0.08,,,0.22,WUHU216HW,2013-03-10 09:40:00,
2013-03-10 04:45:00,47.7,42.5,29.35,SSE,158,2.2,3.8,82,0.08,,,0.23,WUHU216HW,2013-03-10 09:45:00,
2013-03-10 04:50:00,47.5,42.3,29.35,South,180,1.8,2.2,82,0.09,,,0.24,WUHU216HW,2013-03-10 09:50:00,
2013-03-10 04:55:00,47.5,42.3,29.35,South,180,1.1,1.8,82,0.10,,,0.25,WUHU216HW,2013-03-10 09:55:00,
2013-03-10 05:00:00,47.5,42.3,29.35,SE,135,0.0,1.6,82,0.11,,,0.26,WUHU216HW,2013-03-10 10:00:00,
2013-03-10 05:05:00,47.5,42.3,29.34,SSE,158,1.1,1.3,82,0.13,,,0.28,WUHU216HW,2013-03-10 10:05:00,
2013-03-10 05:10:00,47.5,42.3,29.34,SSE,158,1.1,1.3,82,0.15,,,0.30,WUHU216HW,2013-03-10 10:10:00,
2013-03-10 05:15:00,47.5,42.6,29.33,SE,135,1.8,1.8,83,0.16,,,0.33,WUHU216HW,2013-03-10 10:15:00,
2013-03-10 05:20:00,47.5,42.6,29.33,SE,135,1.8,2.5,83,0.14,,,0.34,WUHU216HW,2013-03-10 10:20:00,
2013-03-10 05:25:00,47.5,42.6,29.33,SE,135,1.8,2.5,83,0.14,,,0.35,WUHU216HW,2013-03-10 10:25:00,
2013-03-10 05:30:00,47.5,42.6,29.33,SSW,203,0.4,2.0,83,0.15,,,0.36,WUHU216HW,2013-03-10 10:30:00,
2013-03-10 05:35:00,47.5,42.9,29.33,SSE,158,2.0,2.5,84,0.15,,,0.36,WUHU216HW,2013-03-10 10:35:00,
2013-03-10 05:40:00,47.5,42.9,29.33,SE,135,4.0,4.0,84,0.14,,,0.37,WUHU216HW,2013-03-10 10:40:00,
2013-03-10 05:45:00,47.5,43.2,29.33,SE,135,2.9,4.0,85,0.15,,,0.38,WUHU216HW,2013-03-10 10:45:00,
2013-03-10 05:50:00,47.5,43.2,29.32,SE,135,2.2,6.5,85,0.16,,,0.39,WUHU216HW,2013-03-10 10:50:00,
2013-03-10 05:55:00,47.5,43.6,29.32,SE,135,7.2,7.2,86,0.16,,,0.41,WUHU216HW,2013-03-10 10:55:00,
2013-03-10 06:00:00,47.5,44.2,29.31,SSE,158,6.3,7.4,88,0.15,,,0.41,WUHU216HW,2013-03-10 11:00:00,
2013-03-10 06:05:00,47.7,44.4,29.31,South,180,7.8,7.8,88,0.12,,,0.42,WUHU216HW,2013-03-10 11:05:00,
2013-03-10 06:10:00,47.9,44.6,29.31,ESE,113,3.4,7.8,88,0.11,,,0.43,WUHU216HW,2013-03-10 11:10:00,
2013-03-10 06:15:00,47.9,44.6,29.31,South,180,5.4,6.3,88,0.10,,,0.43,WUHU216HW,2013-03-10 11:15:00,
2013-03-10 06:20:00,47.9,44.2,29.32,South,180,3.8,6.3,87,0.08,,,0.43,WUHU216HW,2013-03-10 11:20:00,
2013-03-10 06:25:00,47.9,44.6,29.32,SE,135,4.7,8.5,88,0.09,,,0.44,WUHU216HW,2013-03-10 11:25:00,
2013-03-10 06:30:00,47.9,44.6,29.32,ESE,113,4.3,8.5,88,0.09,,,0.45,WUHU216HW,2013-03-10 11:30:00,
2013-03-10 06:35:00,48.1,44.4,29.32,SE,135,6.3,6.3,87,0.09,,,0.45,WUHU216HW,2013-03-10 11:35:00,
2013-03-10 06:40:00,48.1,44.4,29.32,SE,135,4.0,6.5,87,0.08,,,0.46,WUHU216HW,2013-03-10 11:40:00,
2013-03-10 06:45:00,48.1,44.4,29.30,SSE,158,4.7,6.5,87,0.07,,,0.46,WUHU216HW,2013-03-10 11:45:00,
2013-03-10 06:50:00,48.1,44.4,29.30,SSE,158,5.4,5.4,87,0.06,,,0.46,WUHU216HW,2013-03-10 11:50:00,
2013-03-10 06:55:00,47.9,43.9,29.29,SE,135,3.6,5.4,86,0.05,,,0.46,WUHU216HW,2013-03-10 11:55:00,
2013-03-10 07:00:00,47.9,43.9,29.30,SE,135,2.5,4.7,86,0.05,,,0.46,WUHU216HW,2013-03-10 12:00:00,
2013-03-10 07:05:00,47.9,43.9,29.30,SE,135,2.7,4.7,86,0.04,,,0.46,WUHU216HW,2013-03-10 12:05:00,
2013-03-10 07:10:00,47.9,43.9,29.30,SSE,158,3.6,4.7,86,0.03,,,0.46,WUHU216HW,2013-03-10 12:10:00,
2013-03-10 07:15:00,47.9,43.9,29.29,SSE,158,4.7,5.4,86,0.04,,,0.47,WUHU216HW,2013-03-10 12:15:00,
2013-03-10 07:20:00,47.7,43.8,29.30,SE,135,4.3,5.6,86,0.03,,,0.47,WUHU216HW,2013-03-10 12:20:00,
2013-03-10 07:25:00,47.9,44.2,29.29,SE,135,2.7,6.9,87,0.03,,,0.47,WUHU216HW,2013-03-10 12:25:00,
2013-03-10 07:30:00,47.9,44.2,29.30,SE,135,3.4,6.9,87,0.02,,,0.47,WUHU216HW,2013-03-10 12:30:00,
2013-03-10 07:35:00,47.9,44.2,29.31,SE,135,4.0,6.3,87,0.01,,,0.47,WUHU216HW,2013-03-10 12:35:00,
2013-03-10 07:40:00,47.9,44.2,29.32,SSE,158,4.0,4.0,87,0.01,,,0.47,WUHU216HW,2013-03-10 12:40:00,
2013-03-10 07:45:00,47.9,44.2,29.31,South,180,4.5,5.1,87,0.01,,,0.47,WUHU216HW,2013-03-10 12:45:00,
2013-03-10 07:50:00,47.9,44.2,29.31,SSE,158,4.0,6.0,87,0.01,,,0.47,WUHU216HW,2013-03-10 12:50:00,
2013-03-10 07:55:00,48.1,44.4,29.30,SE,135,4.5,6.0,87,0.02,,,0.47,WUHU216HW,2013-03-10 12:55:00,
2013-03-10 08:00:00,48.1,44.4,29.30,SE,135,5.1,5.8,87,0.02,,,0.49,WUHU216HW,2013-03-10 13:00:00,
2013-03-10 08:05:00,48.1,44.4,29.30,SSE,158,5.4,5.4,87,0.02,,,0.49,WUHU216HW,2013-03-10 13:05:00,
2013-03-10 08:10:00,48.1,44.1,29.32,NW,315,3.4,5.4,86,0.01,,,0.49,WUHU216HW,2013-03-10 13:10:00,
2013-03-10 08:15:00,48.1,44.1,29.34,SW,225,3.4,4.5,86,0.01,,,0.49,WUHU216HW,2013-03-10 13:15:00,
2013-03-10 08:20:00,48.2,44.3,29.34,SSE,158,1.1,3.8,86,0.02,,,0.49,WUHU216HW,2013-03-10 13:20:00,
2013-03-10 08:25:00,48.4,44.4,29.34,SE,135,2.0,3.1,86,0.03,,,0.51,WUHU216HW,2013-03-10 13:25:00,
2013-03-10 08:30:00,48.4,44.1,29.34,SE,135,3.4,3.4,85,0.03,,,0.51,WUHU216HW,2013-03-10 13:30:00,
2013-03-10 08:35:00,48.6,44.3,29.34,SE,135,2.7,3.4,85,0.04,,,0.51,WUHU216HW,2013-03-10 13:35:00,
2013-03-10 08:40:00,48.4,44.1,29.34,SE,135,2.2,3.4,85,0.04,,,0.51,WUHU216HW,2013-03-10 13:40:00,
2013-03-10 08:45:00,48.6,44.3,29.34,SSE,158,2.5,3.1,85,0.04,,,0.51,WUHU216HW,2013-03-10 13:45:00,
2013-03-10 08:50:00,48.6,44.3,29.34,SSE,158,2.7,3.1,85,0.04,,,0.51,WUHU216HW,2013-03-10 13:50:00,
2013-03-10 08:55:00,48.6,44.3,29.34,SE,135,3.6,3.6,85,0.03,,,0.51,WUHU216HW,2013-03-10 13:55:00,
2013-03-10 09:00:00,48.6,43.9,29.33,SE,135,4.0,5.1,84,0.03,,,0.51,WUHU216HW,2013-03-10 14:00:00,
2013-03-10 09:05:00,48.6,43.9,29.33,SSE,158,2.5,5.1,84,0.04,,,0.52,WUHU216HW,2013-03-10 14:05:00,
2013-03-10 09:10:00,48.6,43.7,29.33,ESE,113,4.0,4.3,83,0.04,,,0.52,WUHU216HW,2013-03-10 14:10:00,
2013-03-10 09:15:00,48.6,43.9,29.33,SE,135,4.9,4.9,84,0.03,,,0.52,WUHU216HW,2013-03-10 14:15:00,
2013-03-10 09:20:00,48.8,44.1,29.33,SSE,158,3.1,4.9,84,0.02,,,0.52,WUHU216HW,2013-03-10 14:20:00,
2013-03-10 09:25:00,49.0,44.3,29.33,SE,135,2.7,4.9,84,0.03,,,0.54,WUHU216HW,2013-03-10 14:25:00,
2013-03-10 09:30:00,49.1,44.5,29.32,SE,135,2.5,4.9,84,0.03,,,0.54,WUHU216HW,2013-03-10 14:30:00,
2013-03-10 09:35:00,49.1,44.1,29.32,SE,135,3.1,4.7,83,0.03,,,0.54,WUHU216HW,2013-03-10 14:35:00,
2013-03-10 09:41:00,49.1,44.1,29.32,SSE,158,2.7,4.0,83,0.03,,,0.54,WUHU216HW,2013-03-10 14:41:00,
2013-03-10 09:46:00,49.3,44.3,29.33,SE,135,2.7,4.0,83,0.03,,,0.54,WUHU216HW,2013-03-10 14:46:00,
2013-03-10 09:51:00,49.3,44.3,29.33,SE,135,3.8,4.0,83,0.03,,,0.54,WUHU216HW,2013-03-10 14:51:00,
2013-03-10 09:56:00,49.3,44.3,29.32,SE,135,2.9,4.3,83,0.03,,,0.54,WUHU216HW,2013-03-10 14:56:00,
2013-03-10 10:01:00,49.3,44.7,29.32,SSE,158,4.0,4.3,84,0.03,,,0.56,WUHU216HW,2013-03-10 15:01:00,
2013-03-10 10:06:00,49.3,44.7,29.32,SSE,158,3.1,4.3,84,0.03,,,0.56,WUHU216HW,2013-03-10 15:06:00,
2013-03-10 10:11:00,49.7,45.3,29.32,SE,135,2.2,4.3,85,0.03,,,0.56,WUHU216HW,2013-03-10 15:11:00,
2013-03-10 10:16:00,49.9,45.5,29.32,NE,45,3.4,4.0,85,0.03,,,0.56,WUHU216HW,2013-03-10 15:16:00,
2013-03-10 10:21:00,50.0,45.6,29.32,ESE,113,2.2,3.4,85,0.02,,,0.56,WUHU216HW,2013-03-10 15:21:00,
2013-03-10 10:26:00,50.2,45.8,29.32,ESE,113,2.7,3.4,85,0.02,,,0.56,WUHU216HW,2013-03-10 15:26:00,
2013-03-10 10:31:00,50.4,46.0,29.32,SSE,158,1.8,3.1,85,0.02,,,0.56,WUHU216HW,2013-03-10 15:31:00,
2013-03-10 10:36:00,50.6,46.2,29.31,SE,135,2.5,3.1,85,0.02,,,0.56,WUHU216HW,2013-03-10 15:36:00,
2013-03-10 10:41:00,50.6,46.2,29.31,ESE,113,3.1,3.1,85,0.02,,,0.56,WUHU216HW,2013-03-10 15:41:00,
2013-03-10 10:46:00,50.6,46.2,29.30,SSE,158,3.4,3.4,85,0.02,,,0.56,WUHU216HW,2013-03-10 15:46:00,
2013-03-10 10:51:00,50.9,46.8,29.28,SE,135,2.7,3.4,86,0.02,,,0.56,WUHU216HW,2013-03-10 15:51:00,
2013-03-10 10:56:00,51.3,47.2,29.27,SE,135,2.7,3.1,86,0.02,,,0.56,WUHU216HW,2013-03-10 15:56:00,
2013-03-10 11:01:00,51.8,47.7,29.25,SE,135,2.0,2.7,86,0.01,,,0.56,WUHU216HW,2013-03-10 16:01:00,
2013-03-10 11:06:00,52.0,47.6,29.27,SE,135,2.9,3.6,85,0.01,,,0.56,WUHU216HW,2013-03-10 16:06:00,
2013-03-10 11:11:00,52.0,47.4,29.29,SSE,158,3.8,4.0,84,0.01,,,0.56,WUHU216HW,2013-03-10 16:11:00,
2013-03-10 11:16:00,51.8,47.2,29.29,SE,135,1.8,4.0,84,0.01,,,0.56,WUHU216HW,2013-03-10 16:16:00,
2013-03-10 11:21:00,51.8,47.2,29.30,SE,135,3.6,5.8,84,0.01,,,0.56,WUHU216HW,2013-03-10 16:21:00,
2013-03-10 11:26:00,51.7,46.6,29.30,SSW,203,1.1,5.8,83,0.01,,,0.56,WUHU216HW,2013-03-10 16:26:00,
2013-03-10 11:31:00,51.7,46.6,29.30,South,180,3.4,4.0,83,0.01,,,0.56,WUHU216HW,2013-03-10 16:31:00,
2013-03-10 11:36:00,51.3,46.3,29.30,SE,135,1.1,4.0,83,0.00,,,0.56,WUHU216HW,2013-03-10 16:36:00,
2013-03-10 11:41:00,51.3,46.3,29.30,SE,135,1.3,3.4,83,0.00,,,0.56,WUHU216HW,2013-03-10 16:41:00,
2013-03-10 11:46:00,51.1,46.1,29.30,SSE,158,1.8,2.5,83,0.01,,,0.58,WUHU216HW,2013-03-10 16:46:00,
2013-03-10 11:51:00,51.1,46.5,29.30,SSE,158,2.5,2.5,84,0.01,,,0.58,WUHU216HW,2013-03-10 16:51:00,
2013-03-10 11:56:00,51.1,46.5,29.30,SSE,158,1.8,3.1,84,0.02,,,0.58,WUHU216HW,2013-03-10 16:56:00,
2013-03-10 12:01:00,50.9,46.3,29.30,SSE,158,5.1,5.1,84,0.02,,,0.58,WUHU216HW,2013-03-10 17:01:00,
2013-03-10 12:06:00,50.9,46.3,29.30,SE,135,2.0,5.1,84,0.03,,,0.60,WUHU216HW,2013-03-10 17:06:00,
2013-03-10 12:11:00,50.8,46.4,29.30,SSE,158,4.5,4.5,85,0.04,,,0.61,WUHU216HW,2013-03-10 17:11:00,
2013-03-10 12:16:00,50.8,46.6,29.31,ESE,113,2.0,4.5,86,0.06,,,0.62,WUHU216HW,2013-03-10 17:16:00,
2013-03-10 12:21:00,50.6,46.4,29.32,SSE,158,3.1,4.0,86,0.07,,,0.64,WUHU216HW,2013-03-10 17:21:00,
2013-03-10 12:26:00,50.6,46.4,29.32,SSW,203,4.0,4.9,86,0.08,,,0.65,WUHU216HW,2013-03-10 17:26:00,
2013-03-10 12:31:00,50.8,46.6,29.32,SSE,158,1.3,4.9,86,0.11,,,0.67,WUHU216HW,2013-03-10 17:31:00,
2013-03-10 12:36:00,50.9,47.4,29.30,SSE,158,2.2,5.6,88,0.12,,,0.69,WUHU216HW,2013-03-10 17:36:00,
2013-03-10 12:41:00,50.9,47.4,29.30,WSW,248,1.8,5.6,88,0.15,,,0.71,WUHU216HW,2013-03-10 17:41:00,
2013-03-10 12:46:00,51.1,47.6,29.30,SE,135,2.2,4.7,88,0.16,,,0.73,WUHU216HW,2013-03-10 17:46:00,
2013-03-10 12:51:00,51.1,47.6,29.29,SSE,158,2.5,4.7,88,0.17,,,0.75,WUHU216HW,2013-03-10 17:51:00,
2013-03-10 12:56:00,51.1,47.6,29.28,SSE,158,1.3,3.6,88,0.16,,,0.75,WUHU216HW,2013-03-10 17:56:00,
2013-03-10 13:01:00,51.1,47.6,29.28,SE,135,1.3,3.6,88,0.17,,,0.75,WUHU216HW,2013-03-10 18:01:00,
2013-03-10 13:06:00,51.1,47.6,29.28,South,180,4.0,4.0,88,0.16,,,0.76,WUHU216HW,2013-03-10 18:06:00,
2013-03-10 13:11:00,51.3,47.8,29.27,SE,135,1.1,4.0,88,0.16,,,0.77,WUHU216HW,2013-03-10 18:11:00,
2013-03-10 13:16:00,51.5,48.0,29.27,SSE,158,1.1,2.7,88,0.15,,,0.78,WUHU216HW,2013-03-10 18:16:00,
2013-03-10 13:21:00,51.5,48.0,29.26,SSE,158,2.0,2.0,88,0.13,,,0.78,WUHU216HW,2013-03-10 18:21:00,
2013-03-10 13:26:00,51.8,48.7,29.25,SE,135,1.1,2.5,89,0.11,,,0.78,WUHU216HW,2013-03-10 18:26:00,
2013-03-10 13:31:00,51.8,48.7,29.25,SE,135,2.0,2.7,89,0.11,,,0.79,WUHU216HW,2013-03-10 18:31:00,
2013-03-10 13:36:00,51.8,48.3,29.24,SE,135,0.9,2.7,88,0.10,,,0.79,WUHU216HW,2013-03-10 18:36:00,
2013-03-10 13:41:00,52.2,49.1,29.24,SE,135,1.6,2.2,89,0.07,,,0.80,WUHU216HW,2013-03-10 18:41:00,
2013-03-10 13:46:00,52.2,49.1,29.23,SE,135,1.1,1.8,89,0.07,,,0.81,WUHU216HW,2013-03-10 18:46:00,
2013-03-10 13:51:00,52.2,48.7,29.22,SSE,158,1.8,1.8,88,0.08,,,0.83,WUHU216HW,2013-03-10 18:51:00,
2013-03-10 13:56:00,52.4,48.9,29.22,SSE,158,1.1,1.8,88,0.11,,,0.85,WUHU216HW,2013-03-10 18:56:00,
2013-03-10 14:01:00,52.6,49.1,29.21,SE,135,0.9,1.1,88,0.13,,,0.88,WUHU216HW,2013-03-10 19:01:00,
2013-03-10 14:06:00,52.6,49.1,29.21,SE,135,0.7,1.6,88,0.15,,,0.91,WUHU216HW,2013-03-10 19:06:00,
2013-03-10 14:11:00,52.6,49.1,29.21,SSE,158,1.8,1.8,88,0.17,,,0.93,WUHU216HW,2013-03-10 19:11:00,
2013-03-10 14:16:00,52.6,49.1,29.22,SSE,158,0.7,1.8,88,0.18,,,0.95,WUHU216HW,2013-03-10 19:16:00,
2013-03-10 14:21:00,52.9,49.4,29.21,SE,135,1.6,1.6,88,0.19,,,0.97,WUHU216HW,2013-03-10 19:21:00,
2013-03-10 14:26:00,52.7,49.2,29.21,SE,135,0.4,1.6,88,0.21,,,0.98,WUHU216HW,2013-03-10 19:26:00,
2013-03-10 14:31:00,52.9,49.4,29.22,South,180,0.2,1.1,88,0.21,,,1.00,WUHU216HW,2013-03-10 19:31:00,
2013-03-10 14:36:00,52.9,49.4,29.21,South,180,0.2,1.1,88,0.23,,,1.01,WUHU216HW,2013-03-10 19:36:00,
2013-03-10 14:41:00,52.9,49.4,29.22,SE,135,0.9,0.9,88,0.22,,,1.03,WUHU216HW,2013-03-10 19:41:00,
2013-03-10 14:46:00,52.9,49.4,29.22,South,180,0.7,1.3,88,0.23,,,1.05,WUHU216HW,2013-03-10 19:46:00,
2013-03-10 14:51:00,52.9,49.4,29.23,SSE,158,0.2,1.1,88,0.23,,,1.07,WUHU216HW,2013-03-10 19:51:00,
2013-03-10 14:56:00,52.9,49.4,29.24,SSW,203,1.1,1.6,88,0.22,,,1.10,WUHU216HW,2013-03-10 19:56:00,
2013-03-10 15:02:00,52.9,49.4,29.24,SSE,158,0.0,2.0,88,0.22,,,1.12,WUHU216HW,2013-03-10 20:02:00,
2013-03-10 15:07:00,52.9,49.4,29.23,SSE,158,0.0,2.0,88,0.23,,,1.14,WUHU216HW,2013-03-10 20:07:00,
2013-03-10 15:12:00,52.9,49.4,29.23,SSE,158,1.3,1.3,88,0.22,,,1.17,WUHU216HW,2013-03-10 20:12:00,
2013-03-10 15:17:00,52.9,49.4,29.23,SE,135,0.4,1.3,88,0.22,,,1.19,WUHU216HW,2013-03-10 20:17:00,
2013-03-10 15:22:00,52.7,49.2,29.23,SE,135,1.6,1.8,88,0.24,,,1.23,WUHU216HW,2013-03-10 20:22:00,
2013-03-10 15:27:00,52.7,49.2,29.22,South,180,1.3,3.4,88,0.26,,,1.25,WUHU216HW,2013-03-10 20:27:00,
2013-03-10 15:32:00,52.9,49.4,29.22,SE,135,1.1,3.4,88,0.26,,,1.28,WUHU216HW,2013-03-10 20:32:00,
2013-03-10 15:37:00,52.9,49.8,29.22,West,270,1.8,2.2,89,0.28,,,1.30,WUHU216HW,2013-03-10 20:37:00,
2013-03-10 15:42:00,52.7,49.6,29.22,SW,225,1.8,6.3,89,0.30,,,1.33,WUHU216HW,2013-03-10 20:42:00,
2013-03-10 15:47:00,52.6,49.4,29.22,WSW,248,1.1,6.3,89,0.30,,,1.35,WUHU216HW,2013-03-10 20:47:00,
2013-03-10 15:52:00,52.6,49.1,29.22,West,270,0.4,1.8,88,0.26,,,1.37,WUHU216HW,2013-03-10 20:52:00,
2013-03-10 15:57:00,52.7,49.2,29.21,WNW,293,1.1,1.8,88,0.24,,,1.37,WUHU216HW,2013-03-10 20:57:00,
2013-03-10 16:02:00,52.7,49.2,29.22,WSW,248,1.8,2.2,88,0.24,,,1.38,WUHU216HW,2013-03-10 21:02:00,
2013-03-10 16:07:00,52.7,49.2,29.21,WSW,248,3.1,3.1,88,0.21,,,1.38,WUHU216HW,2013-03-10 21:07:00,
2013-03-10 16:12:00,52.6,49.1,29.20,NW,315,0.0,3.1,88,0.18,,,1.38,WUHU216HW,2013-03-10 21:12:00,
2013-03-10 16:17:00,52.9,49.4,29.19,WNW,293,0.4,1.3,88,0.16,,,1.39,WUHU216HW,2013-03-10 21:17:00,
2013-03-10 16:22:00,52.9,49.4,29.19,West,270,0.0,1.3,88,0.14,,,1.39,WUHU216HW,2013-03-10 21:22:00,
2013-03-10 16:27:00,53.1,49.6,29.19,NW,315,0.4,1.1,88,0.12,,,1.39,WUHU216HW,2013-03-10 21:27:00,
2013-03-10 16:32:00,53.1,49.3,29.20,West,270,0.4,1.3,87,0.08,,,1.39,WUHU216HW,2013-03-10 21:32:00,
2013-03-10 16:37:00,53.3,49.5,29.20,WSW,248,0.0,1.3,87,0.06,,,1.39,WUHU216HW,2013-03-10 21:37:00,
2013-03-10 16:42:00,53.3,49.5,29.19,SSE,158,0.0,0.9,87,0.04,,,1.39,WUHU216HW,2013-03-10 21:42:00,
2013-03-10 16:47:00,53.3,49.5,29.19,SSE,158,0.0,0.4,87,0.03,,,1.39,WUHU216HW,2013-03-10 21:47:00,
2013-03-10 16:52:00,53.3,49.5,29.18,ENE,68,0.4,0.7,87,0.02,,,1.39,WUHU216HW,2013-03-10 21:52:00,
2013-03-10 16:57:00,53.3,49.5,29.14,ESE,113,3.4,3.4,87,0.01,,,1.39,WUHU216HW,2013-03-10 21:57:00,
2013-03-10 17:02:00,52.9,49.2,29.12,ENE,68,3.1,3.6,87,0.01,,,1.39,WUHU216HW,2013-03-10 22:02:00,
2013-03-10 17:08:00,52.9,49.2,29.14,SE,135,1.1,3.6,87,0.01,,,1.39,WUHU216HW,2013-03-10 22:08:00,
2013-03-10 17:13:00,52.6,49.1,29.17,ESE,113,2.7,3.4,88,0.00,,,1.39,WUHU216HW,2013-03-10 22:13:00,
2013-03-10 17:18:00,52.6,49.1,29.17,SE,135,1.1,3.4,88,0.00,,,1.39,WUHU216HW,2013-03-10 22:18:00,
2013-03-10 17:23:00,52.7,49.2,29.15,SE,135,2.0,2.5,88,0.00,,,1.39,WUHU216HW,2013-03-10 22:23:00,
2013-03-10 17:28:00,52.7,49.2,29.15,ESE,113,0.4,2.0,88,0.00,,,1.39,WUHU216HW,2013-03-10 22:28:00,
2013-03-10 17:33:00,52.9,49.4,29.17,SW,225,0.2,1.8,88,0.00,,,1.39,WUHU216HW,2013-03-10 22:33:00,
2013-03-10 17:38:00,52.9,49.4,29.18,ESE,113,1.3,1.8,88,0.00,,,1.39,WUHU216HW,2013-03-10 22:38:00,
2013-03-10 17:43:00,53.1,49.3,29.18,SSE,158,0.9,1.8,87,0.00,,,1.39,WUHU216HW,2013-03-10 22:43:00,
2013-03-10 17:48:00,53.3,49.5,29.19,West,270,2.7,2.9,87,0.00,,,1.39,WUHU216HW,2013-03-10 22:48:00,
2013-03-10 17:53:00,53.1,49.3,29.18,WSW,248,1.1,3.4,87,0.00,,,1.39,WUHU216HW,2013-03-10 22:53:00,
2013-03-10 17:58:00,53.1,49.3,29.18,WSW,248,0.9,3.4,87,0.00,,,1.39,WUHU216HW,2013-03-10 22:58:00,
2013-03-10 18:03:00,53.1,49.3,29.18,WSW,248,0.0,3.1,87,0.00,,,1.39,WUHU216HW,2013-03-10 23:03:00,
2013-03-10 18:08:00,52.9,49.2,29.18,WSW,248,1.1,2.7,87,0.00,,,1.39,WUHU216HW,2013-03-10 23:08:00,
2013-03-10 18:13:00,52.9,49.2,29.18,SSE,158,0.0,2.7,87,0.00,,,1.39,WUHU216HW,2013-03-10 23:13:00,
2013-03-10 18:18:00,52.9,49.2,29.18,SW,225,1.1,1.8,87,0.00,,,1.39,WUHU216HW,2013-03-10 23:18:00,
2013-03-10 18:23:00,52.9,48.8,29.18,SW,225,0.9,1.8,86,0.00,,,1.39,WUHU216HW,2013-03-10 23:23:00,
2013-03-10 18:28:00,52.9,48.8,29.19,WSW,248,0.2,1.8,86,0.00,,,1.39,WUHU216HW,2013-03-10 23:28:00,
2013-03-10 18:33:00,52.7,48.6,29.19,SSE,158,2.2,2.2,86,0.00,,,1.39,WUHU216HW,2013-03-10 23:33:00,
2013-03-10 18:38:00,52.6,48.4,29.19,SSE,158,0.9,2.2,86,0.00,,,1.39,WUHU216HW,2013-03-10 23:38:00,
2013-03-10 18:43:00,52.4,48.6,29.19,WSW,248,1.1,1.3,87,0.00,,,1.39,WUHU216HW,2013-03-10 23:43:00,
2013-03-10 18:48:00,52.2,48.4,29.19,SW,225,1.8,2.2,87,0.00,,,1.39,WUHU216HW,2013-03-10 23:48:00,
2013-03-10 18:53:00,52.2,48.4,29.19,SSE,158,0.7,2.5,87,0.00,,,1.39,WUHU216HW,2013-03-10 23:53:00,
2013-03-10 18:58:00,52.2,48.7,29.20,SSE,158,1.1,2.5,88,0.00,,,1.39,WUHU216HW,2013-03-10 23:58:00,
2013-03-10 19:03:00,52.0,48.5,29.20,SSE,158,1.8,2.5,88,0.00,,,1.39,WUHU216HW,2013-03-11 00:03:00,
2013-03-10 19:08:00,51.8,48.3,29.20,SSW,203,0.4,2.5,88,0.00,,,1.39,WUHU216HW,2013-03-11 00:08:00,
2013-03-10 19:13:00,51.8,48.3,29.20,South,180,1.1,2.5,88,0.00,,,1.39,WUHU216HW,2013-03-11 00:13:00,
2013-03-10 19:18:00,51.8,48.3,29.20,SSW,203,1.3,2.5,88,0.00,,,1.39,WUHU216HW,2013-03-11 00:18:00,
2013-03-10 19:23:00,51.7,48.2,29.20,SSE,158,3.1,3.1,88,0.00,,,1.39,WUHU216HW,2013-03-11 00:23:00,
2013-03-10 19:28:00,51.5,48.0,29.20,SSE,158,1.8,4.0,88,0.00,,,1.39,WUHU216HW,2013-03-11 00:28:00,
2013-03-10 19:33:00,51.5,48.0,29.20,SW,225,1.3,4.0,88,0.00,,,1.39,WUHU216HW,2013-03-11 00:33:00,
2013-03-10 19:38:00,51.5,48.0,29.21,SE,135,1.8,2.5,88,0.00,,,1.39,WUHU216HW,2013-03-11 00:38:00,
2013-03-10 19:43:00,51.5,48.0,29.21,South,180,0.0,2.5,88,0.00,,,1.39,WUHU216HW,2013-03-11 00:43:00,
2013-03-10 19:48:00,51.5,48.0,29.21,WSW,248,0.7,2.5,88,0.00,,,1.39,WUHU216HW,2013-03-11 00:48:00,
2013-03-10 19:53:00,51.5,48.0,29.21,West,270,0.4,1.6,88,0.00,,,1.39,WUHU216HW,2013-03-11 00:53:00,
2013-03-10 19:58:00,51.5,48.0,29.21,SSE,158,1.6,1.8,88,0.00,,,1.39,WUHU216HW,2013-03-11 00:58:00,
2013-03-10 20:03:00,51.5,48.0,29.21,WSW,248,1.1,1.6,88,0.00,,,1.39,WUHU216HW,2013-03-11 01:03:00,
2013-03-10 20:08:00,51.5,48.0,29.22,SW,225,3.1,3.1,88,0.00,,,1.39,WUHU216HW,2013-03-11 01:08:00,
2013-03-10 20:13:00,51.5,48.0,29.22,South,180,1.1,3.1,88,0.01,,,1.40,WUHU216HW,2013-03-11 01:13:00,
2013-03-10 20:18:00,51.3,47.8,29.22,SW,225,1.1,3.4,88,0.02,,,1.41,WUHU216HW,2013-03-11 01:18:00,
2013-03-10 20:23:00,51.3,48.2,29.22,South,180,1.8,3.4,89,0.03,,,1.42,WUHU216HW,2013-03-11 01:23:00,
2013-03-10 20:28:00,51.1,48.0,29.22,SW,225,1.3,3.4,89,0.04,,,1.42,WUHU216HW,2013-03-11 01:28:00,
2013-03-10 20:33:00,51.1,48.0,29.22,SSW,203,0.9,3.4,89,0.04,,,1.43,WUHU216HW,2013-03-11 01:33:00,
2013-03-10 20:38:00,50.9,47.8,29.22,WSW,248,2.7,4.0,89,0.04,,,1.43,WUHU216HW,2013-03-11 01:38:00,
2013-03-10 20:43:00,50.9,47.8,29.23,SSE,158,1.1,4.0,89,0.05,,,1.43,WUHU216HW,2013-03-11 01:43:00,
2013-03-10 20:48:00,50.9,47.8,29.23,South,180,1.1,4.7,89,0.05,,,1.44,WUHU216HW,2013-03-11 01:48:00,
2013-03-10 20:53:00,50.8,47.6,29.22,SSW,203,1.8,4.7,89,0.05,,,1.44,WUHU216HW,2013-03-11 01:53:00,
2013-03-10 20:59:00,50.8,47.6,29.22,SSE,158,1.8,2.9,89,0.05,,,1.44,WUHU216HW,2013-03-11 01:59:00,
2013-03-10 21:04:00,50.8,47.6,29.22,SSE,158,2.5,4.0,89,0.05,,,1.44,WUHU216HW,2013-03-11 02:04:00,
2013-03-10 21:09:00,50.8,47.6,29.22,South,180,1.6,4.0,89,0.04,,,1.44,WUHU216HW,2013-03-11 02:09:00,
2013-03-10 21:14:00,50.8,47.3,29.22,SSW,203,2.5,3.6,88,0.03,,,1.44,WUHU216HW,2013-03-11 02:14:00,
2013-03-10 21:19:00,50.6,47.4,29.23,WSW,248,3.8,3.8,89,0.03,,,1.44,WUHU216HW,2013-03-11 02:19:00,
2013-03-10 21:24:00,50.6,47.4,29.23,SW,225,1.3,3.8,89,0.02,,,1.44,WUHU216HW,2013-03-11 02:24:00,
2013-03-10 21:29:00,50.6,47.4,29.22,South,180,1.8,6.3,89,0.01,,,1.44,WUHU216HW,2013-03-11 02:29:00,
2013-03-10 21:34:00,50.6,47.4,29.23,NNW,338,1.1,6.3,89,0.01,,,1.44,WUHU216HW,2013-03-11 02:34:00,
2013-03-10 21:39:00,50.6,47.4,29.23,SE,135,2.5,4.0,89,0.01,,,1.44,WUHU216HW,2013-03-11 02:39:00,
2013-03-10 21:44:00,50.6,47.4,29.23,ENE,68,2.7,4.0,89,0.00,,,1.44,WUHU216HW,2013-03-11 02:44:00,
2013-03-10 21:49:00,50.6,47.4,29.23,West,270,1.1,3.4,89,0.00,,,1.44,WUHU216HW,2013-03-11 02:49:00,
2013-03-10 21:54:00,50.6,47.4,29.23,SW,225,2.0,3.4,89,0.00,,,1.44,WUHU216HW,2013-03-11 02:54:00,
2013-03-10 21:59:00,50.6,47.4,29.23,SE,135,3.1,4.5,89,0.00,,,1.44,WUHU216HW,2013-03-11 02:59:00,
2013-03-10 22:04:00,50.6,47.4,29.23,SSW,203,1.8,4.5,89,0.00,,,1.44,WUHU216HW,2013-03-11 03:04:00,
2013-03-10 22:09:00,50.6,47.4,29.23,SW,225,1.8,3.8,89,0.00,,,1.44,WUHU216HW,2013-03-11 03:09:00,
2013-03-10 22:14:00,50.4,47.3,29.23,SSE,158,0.9,4.7,89,0.00,,,1.44,WUHU216HW,2013-03-11 03:14:00,
2013-03-10 22:19:00,50.4,47.3,29.23,SE,135,1.3,4.7,89,0.00,,,1.44,WUHU216HW,2013-03-11 03:19:00,
2013-03-10 22:24:00,50.4,47.3,29.23,SSE,158,1.1,2.7,89,0.00,,,1.44,WUHU216HW,2013-03-11 03:24:00,
2013-03-10 22:29:00,50.4,47.5,29.22,SSW,203,1.8,2.5,90,0.00,,,1.44,WUHU216HW,2013-03-11 03:29:00,
2013-03-10 22:34:00,50.4,47.5,29.22,WNW,293,1.3,2.5,90,0.00,,,1.44,WUHU216HW,2013-03-11 03:34:00,
2013-03-10 22:39:00,50.4,47.5,29.22,South,180,0.9,2.5,90,0.00,,,1.44,WUHU216HW,2013-03-11 03:39:00,
2013-03-10 22:44:00,50.4,47.5,29.22,NE,45,2.0,4.5,90,0.00,,,1.44,WUHU216HW,2013-03-11 03:44:00,
2013-03-10 22:49:00,50.2,47.3,29.22,SW,225,2.9,4.5,90,0.00,,,1.44,WUHU216HW,2013-03-11 03:49:00,
2013-03-10 22:54:00,50.2,47.3,29.23,SW,225,3.6,4.3,90,0.00,,,1.44,WUHU216HW,2013-03-11 03:54:00,
2013-03-10 22:59:00,50.4,47.3,29.22,SSE,158,2.5,4.3,89,0.00,,,1.44,WUHU216HW,2013-03-11 03:59:00,
2013-03-10 23:00:00,50.4,47.5,29.22,SSE,158,2.5,4.3,90,0.00,,,1.44,WUHU216HW,2013-03-11 04:00:00,
2013-03-10 23:05:00,50.4,47.5,29.22,WSW,248,1.3,5.1,90,0.00,,,1.44,WUHU216HW,2013-03-11 04:05:00,
2013-03-10 23:10:00,50.2,47.3,29.21,SW,225,1.8,5.1,90,0.00,,,1.44,WUHU216HW,2013-03-11 04:10:00,
2013-03-10 23:15:00,50.2,47.1,29.21,WSW,248,2.0,4.3,89,0.00,,,1.44,WUHU216HW,2013-03-11 04:15:00,
2013-03-10 23:20:00,50.2,47.1,29.22,SW,225,1.8,4.3,89,0.00,,,1.44,WUHU216HW,2013-03-11 04:20:00,
2013-03-10 23:25:00,50.2,47.1,29.21,West,270,2.2,6.9,89,0.00,,,1.44,WUHU216HW,2013-03-11 04:25:00,
2013-03-10 23:30:00,50.2,47.3,29.21,SSE,158,2.9,6.9,90,0.00,,,1.44,WUHU216HW,2013-03-11 04:30:00,
2013-03-10 23:35:00,50.2,47.1,29.21,SSE,158,2.5,4.5,89,0.00,,,1.44,WUHU216HW,2013-03-11 04:35:00,
2013-03-10 23:40:00,50.0,46.9,29.21,SSW,203,1.6,4.5,89,0.00,,,1.44,WUHU216HW,2013-03-11 04:40:00,
2013-03-10 23:45:00,50.0,46.9,29.21,SE,135,1.3,2.5,89,0.00,,,1.44,WUHU216HW,2013-03-11 04:45:00,
2013-03-10 23:50:00,50.2,47.1,29.21,SSE,158,3.1,3.1,89,0.00,,,1.44,WUHU216HW,2013-03-11 04:50:00,
2013-03-10 23:55:00,50.0,46.9,29.21,WSW,248,1.1,3.1,89,0.00,,,1.44,WUHU216HW,2013-03-11 04:55:00,